Location: Neuvy Saint Sepulchre
(46.5953°N, 1.8122°E)
Time: 08:05:41
(UTC+02:00)

ISS - Pass Details

Date: 23 March 2019
Orbit: 408 x 410 km, 51.6° (Epoch: 24 April)

Event Time Altitude Azimuth Distance (km) Brightness Sun altitude
Rises 21:51:53 0° 264° (W) 2,332 0.7 -27.1°
Reaches altitude 10° 21:54:02 10° 271° (W) 1,472 -0.3 -27.4°
Enters shadow 21:55:06 18° 280° (W) 1,068 -1.1 -27.5°
